Content
SEND FEEDBACK

Daily
Averages
Monthly
Summary
Canada

MONTREAL, QUEBEC


Home > North America > Canada > Quebec
Elevation: 118 feet     Latitude: 45 28N     Longitude: 073 45W

WEATHER
 
SELECT A DAY
Number of Records: 198,773;   Date Range: 1/1/95 - 9/17/14
 
SHARE

PRINT THIS DATA

[ ← Previous Day ]
WEATHER ALMANAC - OCTOBER 22, 2013
[ Next Day → ]
[ °C ]   °F
Weather ElementAverageHighLow
Temperature50 °F57.2 °F (1:00 am)44.6 °F (7:00 pm)
Dewpoint39 °F48.2 °F (9:00 am)28.4 °F (5:00 pm)
Humidity66 %88 % (9:00 am)43 % (2:00 pm)
Barometer29.71 in29.76 in (1:00 am)29.66 in (10:00 am)
Wind Speed16.1 mph28.8 mph (10:24 am)
Wind Gust40.3 mph (11:00 am)
Weather ElementAverage
Visibility16.7 mi
Wind DirectionSSW (218.6 °)

Weather ElementTotal
Precipitation---
Heating Degree Days14.1 (Base 65)
Growing Degree Days0.9 (Base 50)
Averaged from 35 records on October 22, 2013
WEATHER CONDITIONS BREAKOUT
WIND DIRECTION BREAKOUT
WEATHER BY HOUR - OCTOBER 22, 2013
[ °C ]   °F
Local TimeTemperatureDewpointHumidityBarometerVisibilityWind DirectionWind SpeedGust SpeedPrecipitationEventsConditions
1:00 AM57.2 °F42.8 °F59 %29.76 in15.0 miSSE (150°)11.5 mphOvercast
2:00 AM56.0 °F43.0 °F50 %29.75 in15.0 miSSE (150°)12.7 mphPartly Cloudy
2:00 AM55.4 °F42.8 °F63 %29.75 in15.0 miSSE (150°)13.8 mphOvercast
3:00 AM55.4 °F42.8 °F63 %29.73 in15.0 miSSE (150°)15.0 mphOvercast
4:00 AM55.4 °F42.8 °F63 %29.72 in15.0 miSSE (160°)11.5 mphOvercast
4:19 AM55.4 °F42.8 °F63 %29.72 in15.0 miSouth (180°)12.7 mphRainLight Rain Showers
5:00 AM53.6 °F44.6 °F72 %29.72 in15.0 miSW (230°)8.1 mphRainLight Rain Showers
6:00 AM51.8 °F46.4 °F82 %29.71 in15.0 miSW (230°)4.6 mphRainLight Rain Showers
7:00 AM51.8 °F46.4 °F82 %29.69 in15.0 miSW (220°)8.1 mphOvercast
7:10 AM51.8 °F46.4 °F82 %29.69 in15.0 miSSW (210°)8.1 mphRainLight Rain
8:00 AM52.0 °F47.0 °F76 %29.69 in15.0 miSSW (210°)12.7 mphRainLight Rain
8:00 AM51.8 °F46.4 °F82 %29.69 in15.0 miSSW (210°)11.5 mphRainLight Rain
9:00 AM51.8 °F48.2 °F88 %29.68 in10.0 miSSW (210°)8.1 mphRainLight Rain
10:00 AM51.8 °F48.2 °F88 %29.66 in10.0 miSouth (190°)11.5 mphRainLight Rain
10:24 AM50.0 °F44.6 °F82 %29.67 in3.0 miSW (230°)28.8 mph39.1 mphRainRain
10:29 AM48.2 °F42.8 °F82 %29.69 in8.0 miWSW (250°)20.7 mph39.1 mphRainLight Rain
10:51 AM46.4 °F39.2 °F76 %29.69 in15.0 miWSW (240°)19.6 mph26.5 mphOvercast
11:00 AM46.4 °F39.2 °F76 %29.71 in15.0 miWSW (250°)27.6 mph40.3 mphRainLight Rain
11:48 AM46.4 °F39.2 °F76 %29.69 in15.0 miWSW (240°)15.0 mph24.2 mphMostly Cloudy
11:56 AM46.4 °F39.2 °F76 %29.69 in15.0 miWSW (240°)13.8 mph20.7 mphRainLight Rain
12:00 PM46.4 °F37.4 °F71 %29.69 in15.0 miSW (230°)17.3 mphRainLight Rain
12:18 PM50.0 °F39.2 °F66 %29.68 in15.0 miSW (230°)23.0 mphScattered Clouds
1:00 PM50.0 °F37.4 °F62 %29.68 in15.0 miSW (230°)23.0 mph28.8 mphMostly Cloudy
2:00 PM50.0 °F34.0 °F43 %29.68 in28.0 miWSW (240°)23.0 mphPartly Cloudy
2:00 PM50.0 °F33.8 °F54 %29.68 in30.0 miSW (230°)27.6 mph34.5 mphMostly Cloudy
3:00 PM51.8 °F30.2 °F44 %29.68 in30.0 miWSW (250°)23.0 mph31.1 mphMostly Cloudy
4:00 PM50.0 °F32.0 °F50 %29.69 in30.0 miWest (270°)15.0 mphMostly Cloudy
5:00 PM50.0 °F28.4 °F43 %29.71 in30.0 miWest (260°)18.4 mphScattered Clouds
6:00 PM46.4 °F28.4 °F50 %29.73 in30.0 miWSW (240°)9.2 mphScattered Clouds
7:00 PM44.6 °F30.2 °F57 %29.73 in15.0 miWSW (240°)9.2 mphScattered Clouds
8:00 PM46.0 °F31.0 °F44 %29.73 in15.0 miSW (220°)23.0 mphScattered Clouds
8:00 PM46.4 °F32.0 °F57 %29.73 in15.0 miSW (230°)23.0 mph31.1 mphPartly Cloudy
9:00 PM44.6 °F32.0 °F61 %29.73 in15.0 miSW (220°)18.4 mph27.6 mphClear
10:00 PM44.6 °F32.0 °F61 %29.73 in15.0 miSW (230°)18.4 mphPartly Cloudy
11:00 PM44.6 °F33.8 °F66 %29.73 in15.0 miSW (230°)15.0 mphMostly Cloudy
Hourly data recorded from CYUL, located miles away from Montreal, Quebec







STORIES FROM OUR PARTNERS